FW0019 Weather Reports


time (UTC)temp
F
wind
direction
speed
knots
gust
knots
rain 1hr
in
rain 24hr
in
rain mn
in
humidity
%
barometer
mb
20260505074507 40 88 7.0 18.2 0.00 0.02 0.00 97 875.2
20260505073005 41 136 7.8 14.8 0.00 0.02 0.00 97 875.3
20260505071502 41 188 10.4 18.2 0.00 0.02 0.00 97 875.1
20260505070107 41 129 9.6 20.9 0.00 0.02 0.02 97 875.3
20260505064559 41 143 11.3 19.1 0.00 0.02 0.02 97 875.2
20260505063058 41 156 12.2 21.7 0.00 0.02 0.02 97 875.4
20260505061618 41 152 11.3 24.3 0.00 0.02 0.02 97 875.4
20260505060100 41 135 12.2 18.2 0.00 0.02 0.02 97 875.6
20260505054557 41 131 10.4 21.7 0.00 0.02 0.02 96 875.6
20260505053057 40 128 9.6 20.9 0.00 0.02 0.02 96 875.7
20260505051555 40 125 9.6 21.7 0.00 0.02 0.02 96 875.7
20260505041557 41 111 10.4 24.3 0.01 0.02 0.02 95 875.8
20260505040101 41 134 10.4 20.9 0.00 0.01 0.01 95 875.7
20260505034554 41 127 12.2 24.3 0.00 0.01 0.01 95 875.6
20260505033100 42 115 12.2 23.5 0.00 0.01 0.01 95 875.5
20260505031555 42 116 11.3 22.6 0.00 0.01 0.01 95 875.3
20260505030051 42 143 10.4 24.3 0.00 0.01 0.01 94 875.4
20260505024550 42 121 9.6 20.9 0.00 0.01 0.01 94 875.1
20260505023047 43 128 12.2 20.0 0.00 0.01 0.01 93 875.1
20260505021545 43 125 13.9 20.9 0.00 0.01 0.01 91 875.2
20260505020044 43 96 13.9 25.2 0.00 0.01 0.01 90 875.0
20260505014545 44 94 14.8 20.9 0.00 0.01 0.01 90 875.1
20260505013043 44 125 10.4 24.3 0.00 0.01 0.01 88 875.6
20260505011545 45 121 10.4 26.1 0.00 0.01 0.01 85 875.6
20260505010056 46 129 13.0 21.7 0.00 0.01 0.01 84 875.7
20260505004543 46 142 12.2 26.9 0.00 0.01 0.01 83 875.8
20260505003042 46 122 12.2 26.1 0.00 0.01 0.01 81 875.9
20260505001541 47 116 11.3 19.1 0.00 0.01 0.01 81 875.8
20260505000049 47 63 11.3 23.5 0.00 0.01 0.01 79 875.9
20260504234540 47 63 12.2 24.3 0.00 0.01 0.01 77 875.9
20260504233040 47 146 14.8 22.6 0.00 0.01 0.01 75 876.0
20260504231539 47 112 13.9 22.6 0.00 0.01 0.01 74 876.0
20260504230040 47 157 12.2 23.5 0.00 0.01 0.01 78 876.1
20260504224539 48 133 11.3 20.9 0.00 0.01 0.01 77 876.1
20260504223038 48 140 13.9 23.5 0.00 0.01 0.01 76 876.1
20260504221541 48 104 12.2 24.3 0.00 0.01 0.01 75 876.3
20260504220046 48 103 13.9 25.2 0.00 0.01 0.01 76 876.3
20260504214538 48 144 12.2 21.7 0.00 0.01 0.01 79 876.5
20260504213051 48 83 12.2 21.7 0.00 0.01 0.01 79 876.7
20260504211540 49 107 13.0 23.5 0.00 0.01 0.01 77 876.6
20260504210034 48 145 13.0 20.9 0.00 0.01 0.01 79 876.8
20260504204541 49 115 13.0 20.9 0.00 0.01 0.01 77 876.7
20260504203033 48 126 10.4 18.2 0.00 0.01 0.01 80 876.9
20260504201531 49 121 11.3 20.0 0.00 0.01 0.01 81 877.0
20260504200029 47 162 11.3 17.4 0.00 0.01 0.01 79 876.9
20260504194528 47 149 11.3 20.0 0.00 0.01 0.01 82 877.0
20260504193025 47 142 13.0 24.3 0.00 0.01 0.01 82 877.1
20260504191526 45 111 10.4 17.4 0.00 0.01 0.01 90 877.1
20260504190027 45 118 9.6 15.6 0.00 0.01 0.01 89 877.3
20260504184522 46 89 8.7 20.9 0.00 0.01 0.01 87 877.5
20260504183019 46 139 13.0 18.2 0.00 0.01 0.01 85 877.2
20260504181518 44 162 10.4 21.7 0.00 0.01 0.01 92 877.0
20260504180013 43 115 7.8 14.8 0.00 0.01 0.01 93 877.2
20260504174516 43 105 9.6 18.2 0.00 0.01 0.01 94 877.2
20260504173009 42 142 8.7 23.5 0.00 0.01 0.01 95 876.9
20260504171508 43 160 8.7 16.5 0.01 0.01 0.01 96 876.7
20260504081524 41 130 12.2 26.9 0.00 0.00 0.00 97 875.3